www.pogodaiklimat.ru

Погода и климат >> Архив погоды >> Таиланд >> Suphan Buri


ПОГОДА в Suphan Buri

  • Прогноз погоды в Suphan Buri
  • Монитор погоды в Suphan Buri
  • Климат города

АРХИВ ПОГОДЫ в Suphan Buri

Время (UTC), дата Ветер
(напр.,м/с)
 
Видим.   Явления Облачность Т
(С)
Тd
(С)
f
(%)
Тe
(С)
Тes
(С)
Комфортность P
(гПа)
Po
(гПа)
Тmin
(С)
Tmax
(С)
R
(мм)
S
(см)
18 20.03 Ю 4 6000 м дымка 3/0
[Cs]
+28.0 +25.1 84 +40 +40 очень
душно
1010.6 1009.6
21 20.03 штиль 0 4000 м дымка 3/0
[Cs]
+26.8 +25.1 90 +39 +39 очень
душно
1009.5 1008.5
00 21.03 штиль 0 3000 м дымка 4/1 600 м
[Sc Ac trans Cs]
+26.5 +24.5 89 +37 +38 очень
душно
1011.4 1010.4 +25.8
03 21.03 штиль 0 5000 м мгла 3/1 600 м
[Cu hum Cs]
+32.6 +19.8 47 +39 +55 опасность
солнечного
удара
1012.4 1011.4
06 21.03 штиль 0 7000 м мгла 5/0
[Cs]
+37.1 +15.9 29 +39 +64 опасность
солнечного
удара
1009.7 1008.7
09 21.03 ЮВ 2 8000 м мгла 5/0
[Cs]
+37.3 +17.7 32 +41 +47 опасность
перегрева
1006.6 1005.6
12 21.03 штиль 0 7000 м мгла 3/0
[Cs]
+33.0 +19.3 44 +38 +38 очень
душно
1007.0 1006.0 +38.2
15 21.03 штиль 0 5000 м дымка 3/0
[Cs]
+29.5 +22.4 66 +39 +39 очень
душно
1009.6 1008.6
18 21.03 штиль 0 4000 м дымка 3/0
[Cs]
+28.0 +23.6 77 +38 +38 очень
душно
1008.4 1007.4
21 21.03 штиль 0 3000 м дымка 3/0
[Cs]
+27.0 +24.1 84 +37 +37 очень
душно
1008.2 1007.2
00 22.03 штиль 0 2000 м дымка 3/0
[Cs]
+26.2 +24.5 90 +37 +38 очень
душно
1009.5 1008.5 +24.6
03 22.03 штиль 0 5000 м мгла 3/0
[Cs]
+32.5 +21.4 52 +40 +59 опасность
солнечного
удара
1011.1 1010.1
06 22.03 Ю 1 8000 м мгла 3/0
[Cs]
+36.0 +22.0 44 +44 +67 опасность
перегрева
1008.2 1007.2
09 22.03 ЮЗ 2 8000 м мгла 3/0
[Cs]
+37.2 +20.7 38 +43 +50 опасность
перегрева
1005.8 1004.8
12 22.03 штиль 0 7000 м мгла 3/0
[Cs]
+33.4 +22.7 54 +43 +43 опасность
перегрева
1005.8 1004.8 +38.0
15 22.03 штиль 0 6000 м дымка 3/0
[Cs]
+29.1 +23.3 71 +39 +39 очень
душно
1008.3 1007.3
18 22.03 штиль 0 5000 м дымка 3/0
[Cs]
+27.7 +24.7 84 +39 +39 очень
душно
1008.4 1007.4
21 22.03 штиль 0 3000 м дымка 3/0
[Cs]
+26.9 +25.0 89 +39 +39 очень
душно
1007.6 1006.6
00 23.03 штиль 0 4000 м дымка 3/0
[Cs]
+27.1 +25.5 91 +40 +41 очень
душно
1010.0 1009.0 +26.0
03 23.03 Ю 2 6000 м мгла 3/0
[Cs]
+33.0 +25.1 63 +47 +60 опасность
перегрева
1011.3 1010.3
06 23.03 штиль 0 8000 м мгла 3/1 600 м
[Cu hum Cs]
+36.7 +22.2 43 +45 +69 опасность
перегрева
1009.0 1008.0
09 23.03 штиль 0 8000 м мгла 3/0
[Cs]
+36.6 +21.9 43 +45 +54 опасность
перегрева
1006.5 1005.5
12 23.03 штиль 0 6000 м мгла 3/0
[Cs]
+33.4 +24.5 60 +46 +46 опасность
перегрева
1007.3 1006.3 +38.0
15 23.03 штиль 0 6000 м дымка 3/0
[Cs]
+29.1 +24.8 78 +42 +42 опасность
перегрева
1009.7 1008.7
18 23.03 штиль 0 5000 м дымка 3/0
[Cs]
+27.6 +24.7 84 +39 +39 очень
душно
1010.0 1008.9
21 23.03 штиль 0 4000 м дымка 3/0
[Cs]
+27.5 +24.6 84 +39 +39 очень
душно
1008.6 1007.6
00 24.03 штиль 0 3000 м дымка 8/0
[Cs]
+27.3 +25.7 91 +40 +41 очень
душно
1010.3 1009.3 +26.5
03 24.03 Ю 3 5000 м дымка 8/0
[Cs]
+31.4 +25.8 72 +46 +56 опасность
перегрева
1012.2 1011.2
06 24.03 Ю 2 7000 м мгла 8/1 600 м
[Cu hum Cs]
+35.2 +25.1 56 +49 +65 опасность
перегрева
1010.0 1009.0
09 24.03 Ю 6 7000 м мгла 8/1 600 м
[Cu hum Cs]
+36.5 +24.5 50 +49 +51 опасность
перегрева
1007.1 1006.1
12 24.03 Ю 3 5000 м мгла 8/3 600 м
[Cb cap Ac und Cs]
+32.1 +23.8 62 +44 +44 опасность
перегрева
1008.8 1007.8 +37.1
15 24.03 Ю 1 4000 м дымка 5/3 600 м
[Sc Cs]
+29.5 +24.5 75 +42 +42 опасность
перегрева
1011.5 1010.5
18 24.03 штиль 0 3000 м дымка 8/3 600 м
[Sc Ac und Cs]
+28.5 +23.7 75 +39 +39 очень
душно
1011.4 1010.4
21 24.03 штиль 0 3000 м дымка 5/0
[Ac trans Cs]
+27.2 +24.3 84 +38 +38 очень
душно
1010.1 1009.1
00 25.03 штиль 0 2000 м дымка 5/3 600 м
[Cu med, cong Ac trans Cs]
+26.4 +23.6 85 +36 +37 очень
душно
1011.7 1010.7 +24.8
03 25.03 ЮЗ 3 6000 м мгла 3/1 600 м
[Cu med, cong Cs]
+32.0 +24.0 63 +44 +54 опасность
перегрева
1013.5 1012.5
06 25.03 Ю 1 7000 м мгла 3/3 600 м
[Cu med, cong Cs]
+35.9 +21.4 43 +43 +60 опасность
перегрева
1010.3 1009.3
09 25.03 штиль 0 8000 м мгла 8/1 600 м
[Cu med, cong Cs]
+37.0 +21.3 40 +44 +51 опасность
перегрева
1007.1 1006.1
12 25.03 штиль 0 7000 м мгла 6/0
[Cs]
+32.4 +23.6 60 +44 +44 опасность
перегрева
1008.2 1007.2 +38.1
15 25.03 Ю 1 6000 м дымка 5/0
[Cs]
+29.1 +23.7 73 +40 +40 очень
душно
1011.7 1010.7
18 25.03 штиль 0 4000 м дымка 3/0
[Cs]
+28.0 +25.1 84 +40 +40 очень
душно
1011.0 1010.0
21 25.03 штиль 0 3000 м дымка 5/0
[Cs]
+27.4 +24.8 86 +39 +39 очень
душно
1009.8 1008.8
00 26.03 штиль 0 3000 м дымка 5/0
[Ac trans Cs]
+27.0 +25.3 90 +39 +40 очень
душно
1011.3 1010.3 +26.4
03 26.03 Ю 1 6000 м мгла 3/0
[Cs]
+34.1 +23.2 53 +44 +60 опасность
перегрева
1012.8 1011.8
06 26.03 ЮЗ 1 8000 м мгла 3/3 600 м
[Cu hum Cs]
+37.1 +23.4 46 +48 +65 опасность
перегрева
1010.9 1009.9
09 26.03 Ю 1 8000 м мгла 3/3 600 м
[Cu hum Cs]
+38.0 +23.0 42 +47 +53 опасность
перегрева
1007.1 1006.1
12 26.03 Ю 1 5000 м мгла 8/3 600 м
[Cb cap Ac und Cs]
+31.6 +23.5 62 +42 +42 опасность
перегрева
1008.5 1007.5 +38.9
15 26.03 Ю 3 2000 м гроза, ливневой дождь 10/5 600 м
[Cb cap Ac As Cs]
+27.0 +24.1 84 +37 +37 очень
душно
1013.7 1012.7 4
18 26.03 штиль 0 3000 м гроза, ливневой дождь 10/5 600 м
[Cb cap Ac As Cs]
+23.9 +23.3 96 +32 +32 очень
душно
1014.4 1013.3 77
21 26.03 штиль 0 3000 м слабый дождь {гроза} 10/5 600 м
[Sc Ac und Cs]
+24.1 +23.2 95 +32 +32 очень
душно
1013.3 1012.3 3
00 27.03 штиль 0 4000 м дымка {гроза, дождь} 10/5 600 м
[Sc Ac und Cs]
+24.0 +23.1 95 +32 +32 очень
душно
1015.0 1013.9 +22.5 0.4
03 27.03 штиль 0 5000 м дымка 10/6 600 м
[Sc Ac und Cs]
+26.4 +23.5 84 +36 +40 очень
душно
1017.8 1016.8
06 27.03 В 2 7000 м дымка 10/5 600 м
[Sc Ac und Cs]
+29.0 +21.7 65 +37 +42 очень
душно
1016.0 1015.0
09 27.03 СВ 1 8000 м мгла 8/3 600 м
[Cu hum Ac trans Cs]
+30.3 +22.0 61 +39 +43 очень
душно
1012.8 1011.8
12 27.03 штиль 0 6000 м дымка 3/3 600 м
[Cu hum Cs]
+28.5 +22.6 70 +37 +37 очень
душно
1013.2 1012.2 +30.9

 

Местоположение метеостанции Suphan Buri (Таиланд): широта 14.47 долгота 100.13 высота над уровнем моря 8 м.

В архиве по умолчанию представлена погода в Suphan Buri за последнюю неделю. Архивные данные за месяц целиком и за предыдущие месяцы, начиная с января 2011 года, Вы можете получить, выбрав интересующий диапазон дат из раскрывающегося списка и нажав кнопку "Ввод!".

Внимание! Время в таблицах - всемирное. Для получения местного времени необходимо прибавить поправку, которая в Suphan Buri равна 7 ч.

Смотрите также архив погоды в соседних городах и на ближайших метеорологических станциях:

Погода в U Thong Agromet (Таиланд) (34 км)
Погода в Nakhonpathom (Таиланд) (53 км)
Погода в Lop Buri (Таиланд) (63 км)
Погода в Ayutthaya (Таиланд) (64 км)
Погода в Pathumthani (Таиланд) (67 км)
Погода в Chainat Agromet (Таиланд) (76 км)
Погода в Don Muang (Таиланд) (79 км)
Погода в Kanchanaburi (Таиланд) (82 км)
Погода в Saraburi (Таиланд) (85 км)
Погода в Bangkok (Таиланд) (94 км)

Пояснения к столбцам:

Ветер - указаны скорость ветра в м/с - средняя за 10 мин, порывы в срок и между сроками (в фигурных скобках) и направление, откуда дует ветер: С - северный, СВ - северо-восточный, В - восточный, ЮВ - юго-восточный, Ю - южный, ЮЗ - юго-западный, З - западный, СЗ - северо-западный.
Видимость - горизонтальная дальность видимости в метрах или километрах. При видимости от 1 до 10 км при отсутствии осадков обычно наблюдается дымка, при ухудшении видимости до 1 км и менее - туман. В сухую погоду видимость может ухудшаться дымом, пылью или мглою.
Явления - указаны атмосферные явления, наблюдавшиеся в срок или в последний час перед сроком; фигурными скобками обозначены явления, наблюдавшиеся между сроками (за 1-3 часа до срока); квадратными скобками обозначены град или гололедные отложения с указанием их диаметра в мм.
Облачность - указаны через наклонную черту общая и нижняя облачность в баллах и высота нижней границы облаков в метрах; квадратными скобками обозначены формы облаков: Ci - перистые, Cs - перисто-слоистые, Cc - перисто-кучевые, Ac - высококучевые, As - высокослоистые, Sc - слоисто-кучевые, Ns - слоисто-дождевые, Cu - кучевые, Cb - кучево-дождевые. Подробнее классификацию облаков см. в Атласе облаков (PDF).
T - Температура воздуха - температура, измеренная на высоте 2 м над землей.
Td - Температура точки росы - температура, при понижении до которой содержащийся в воздухе водяной пар достигнет насыщения.
f - Относительная влажность воздуха - влажноcть воздуха, измеренная на высоте 2 м над землей.
Te - Эффективная температура - температура, которую ощущает одетый по сезону человек в тени. Характеристика душности погоды. При расчете учитывается влияние влажности воздуха и скорости ветра на теплоощущения человека.
Tes - Эффективная температура на солнце - температура, которую ощущает человек, с поправкой на солнечный нагрев. Характеристика знойности погоды. Зависит от высоты солнца над горизонтом, облачности и скорости ветра. Ночью, в пасмурную погоду, а также при ветре 12 м/с и более поправка равна нулю.
P - Атмосферное давление - приведенное к уровню моря атмосферное давление.
Po - Атмосферное давление - измеренное на уровне метеостанции атмосферное давление.
Tmin - Минимальная температура - минимум температуры воздуха на высоте 2 м над землей.
Tmax - Максимальная температура - максимум температуры воздуха на высоте 2 м над землей.
R - Количество осадков - Количество выпавших осадков, мм. При наведении курсора мыши на число - период времени, за который выпало указанное количество осадков.
S - Снежный покров - Высота снежного покрова, см. При наведении курсора мыши на число - состояние снежного покрова и степень покрытия местности в баллах.